�������l�o���
Date,Time,MP-1(��Sv/h),MP-2(��Sv/h),MP-3(��Sv/h),MP-4(��Sv/h),MP-5(��Sv/h),MP-6(��Sv/h),MP-7(��Sv/h),MP-8(��Sv/h),����,����(m/s),���J
2024/01/18,00:00,0.520,0.788,0.491,0.999,0.709,0.315,0.563,0.527,�k��,2.8,��
2024/01/18,00:10,0.520,0.788,0.491,1.000,0.710,0.316,0.564,0.527,���k��,2.9,��
2024/01/18,00:20,0.520,0.787,0.492,1.001,0.710,0.313,0.566,0.526,��,1.7,��
2024/01/18,00:30,0.519,0.787,0.491,0.999,0.709,0.315,0.564,0.528,���k��,2.3,��
2024/01/18,00:40,0.520,0.788,0.491,0.998,0.711,0.316,0.565,0.526,��,3.5,��
2024/01/18,00:50,0.520,0.785,0.492,1.001,0.709,0.315,0.565,0.528,���k��,1.7,��
2024/01/18,01:00,0.519,0.785,0.492,0.999,0.708,0.315,0.565,0.526,���쐼,1.7,��
2024/01/18,01:10,0.519,0.787,0.492,1.000,0.709,0.317,0.565,0.527,���k��,2.6,��
2024/01/18,01:20,0.521,0.788,0.493,0.998,0.710,0.315,0.566,0.526,��,2.8,��
2024/01/18,01:30,0.520,0.785,0.493,1.000,0.710,0.315,0.565,0.524,��,2.6,��
2024/01/18,01:40,0.518,0.787,0.492,1.000,0.711,0.317,0.565,0.528,�쐼,3.0,��
2024/01/18,01:50,0.520,0.787,0.492,1.000,0.710,0.316,0.563,0.528,�쐼,3.2,��
2024/01/18,02:00,0.519,0.789,0.492,1.001,0.709,0.314,0.565,0.527,���쐼,2.8,��
2024/01/18,02:10,0.519,0.788,0.493,1.000,0.710,0.316,0.563,0.527,���쐼,3.0,��
2024/01/18,02:20,0.521,0.789,0.491,1.000,0.710,0.316,0.565,0.528,��,3.3,��
2024/01/18,02:30,0.520,0.786,0.492,0.998,0.710,0.316,0.564,0.527,��쐼,3.6,��
2024/01/18,02:40,0.521,0.787,0.492,1.000,0.712,0.315,0.564,0.527,���쐼,5.2,��
2024/01/18,02:50,0.521,0.789,0.492,0.999,0.712,0.316,0.564,0.527,�쐼,5.3,��
2024/01/18,03:00,0.520,0.788,0.492,0.999,0.709,0.316,0.564,0.527,���쐼,3.4,��
2024/01/18,03:10,0.520,0.789,0.492,1.001,0.711,0.317,0.564,0.528,���쐼,4.9,��
2024/01/18,03:20,0.521,0.788,0.493,0.999,0.710,0.316,0.564,0.527,���쐼,5.0,��
2024/01/18,03:30,0.521,0.787,0.492,0.998,0.711,0.316,0.566,0.527,���k��,5.4,��
2024/01/18,03:40,0.521,0.788,0.493,1.002,0.709,0.316,0.565,0.528,���k��,3.5,��
2024/01/18,03:50,0.520,0.786,0.493,1.000,0.710,0.317,0.564,0.526,��,3.0,��
2024/01/18,04:00,0.522,0.790,0.491,1.001,0.709,0.315,0.566,0.527,��,4.2,��
2024/01/18,04:10,0.519,0.787,0.493,1.000,0.709,0.316,0.565,0.527,���k��,3.5,��
2024/01/18,04:20,0.520,0.788,0.492,1.000,0.711,0.316,0.565,0.527,���k��,5.3,��
2024/01/18,04:30,0.522,0.787,0.493,1.000,0.710,0.316,0.565,0.528,��,5.4,��
2024/01/18,04:40,0.521,0.787,0.492,1.002,0.712,0.316,0.565,0.528,��,5.2,��
2024/01/18,04:50,0.521,0.789,0.491,1.000,0.709,0.317,0.565,0.528,���k��,5.8,��
2024/01/18,05:00,0.521,0.788,0.491,1.001,0.710,0.316,0.563,0.527,���k��,7.5,��
2024/01/18,05:10,0.520,0.788,0.492,1.001,0.711,0.316,0.564,0.526,��,9.6,��
2024/01/18,05:20,0.521,0.788,0.493,1.003,0.709,0.317,0.564,0.529,��,8.6,��
2024/01/18,05:30,0.522,0.788,0.492,1.001,0.709,0.315,0.565,0.527,���쐼,8.2,��
2024/01/18,05:40,0.522,0.789,0.493,1.002,0.711,0.317,0.566,0.528,���쐼,7.6,��
2024/01/18,05:50,0.521,0.788,0.494,1.002,0.709,0.315,0.565,0.528,�쐼,7.9,��
2024/01/18,06:00,0.522,0.788,0.495,1.004,0.711,0.317,0.566,0.528,���쐼,8.2,��
2024/01/18,06:10,0.521,0.789,0.493,1.003,0.710,0.316,0.565,0.527,��,8.7,��
2024/01/18,06:20,0.521,0.789,0.492,1.000,0.713,0.317,0.565,0.528,���쐼,7.2,��
2024/01/18,06:30,0.521,0.788,0.493,1.001,0.710,0.316,0.567,0.527,��,6.1,��
2024/01/18,06:40,0.522,0.789,0.493,1.001,0.709,0.316,0.565,0.528,���k��,6.6,��
2024/01/18,06:50,0.520,0.786,0.493,1.002,0.713,0.316,0.564,0.528,��,6.8,��
2024/01/18,07:00,0.519,0.789,0.493,1.002,0.713,0.316,0.565,0.527,��,6.5,��
2024/01/18,07:10,0.521,0.788,0.493,1.002,0.711,0.315,0.564,0.529,��,7.6,��
2024/01/18,07:20,0.523,0.788,0.492,0.998,0.712,0.317,0.565,0.529,��,7.4,��
2024/01/18,07:30,0.522,0.789,0.492,1.003,0.712,0.318,0.565,0.528,��,8.1,��
2024/01/18,07:40,0.521,0.788,0.492,1.000,0.710,0.316,0.565,0.528,���쐼,5.0,��
2024/01/18,07:50,0.520,0.788,0.492,1.001,0.712,0.317,0.564,0.528,�쐼,5.0,��
2024/01/18,08:00,0.520,0.788,0.493,1.004,0.712,0.317,0.566,0.528,���쐼,5.2,��
2024/01/18,08:10,0.520,0.788,0.493,1.002,0.710,0.317,0.565,0.528,���쐼,6.7,��
2024/01/18,08:20,0.521,0.786,0.492,1.001,0.712,0.316,0.565,0.529,��,6.4,��
2024/01/18,08:30,0.521,0.787,0.492,1.002,0.712,0.317,0.565,0.529,���쐼,4.3,��
2024/01/18,08:40,0.521,0.786,0.493,1.004,0.712,0.316,0.566,0.529,���쐼,5.3,��
2024/01/18,08:50,0.522,0.789,0.494,1.003,0.712,0.317,0.566,0.528,���쐼,6.2,��
2024/01/18,09:00,0.521,0.787,0.493,1.002,0.713,0.316,0.565,0.529,���쐼,6.5,��
2024/01/18,09:10,0.522,0.788,0.493,1.004,0.712,0.317,0.567,0.528,���쐼,5.4,��
2024/01/18,09:20,0.522,0.789,0.493,1.002,0.712,0.315,0.564,0.528,��,6.2,��
2024/01/18,09:30,0.521,0.789,0.493,1.002,0.712,0.316,0.566,0.529,��,7.3,��
2024/01/18,09:40,0.523,0.788,0.493,1.003,0.712,0.316,0.565,0.529,��,5.7,��
2024/01/18,09:50,0.522,0.790,0.493,1.001,0.710,0.317,0.564,0.527,��,6.4,��
2024/01/18,10:00,0.522,0.789,0.493,1.002,0.713,0.317,0.565,0.529,��,6.3,��
2024/01/18,10:10,0.522,0.788,0.492,1.004,0.712,0.317,0.563,0.528,��,5.7,��
2024/01/18,10:20,0.522,0.790,0.493,1.003,0.711,0.317,0.563,0.529,��,3.8,��
2024/01/18,10:30,0.523,0.788,0.493,1.003,0.713,0.317,0.565,0.528,��,4.3,��
2024/01/18,10:40,0.523,0.790,0.492,1.003,0.712,0.317,0.565,0.530,���k��,3.8,��
2024/01/18,10:50,0.523,0.790,0.493,1.003,0.711,0.317,0.564,0.528,�k��,4.0,��
2024/01/18,11:00,0.522,0.790,0.493,1.003,0.714,0.318,0.563,0.530,���k��,3.6,��
2024/01/18,11:10,0.523,0.787,0.495,1.004,0.713,0.317,0.565,0.529,���k��,3.6,��
2024/01/18,11:20,0.522,0.789,0.493,1.004,0.712,0.318,0.565,0.528,���k��,2.9,��
2024/01/18,11:30,0.524,0.789,0.493,1.002,0.713,0.317,0.565,0.528,��,3.7,��
2024/01/18,11:40,0.522,0.791,0.493,1.003,0.711,0.317,0.565,0.529,���k��,5.4,��
2024/01/18,11:50,0.521,0.790,0.495,1.002,0.713,0.317,0.565,0.529,���k��,4.2,��
2024/01/18,12:00,0.522,0.790,0.495,1.004,0.713,0.318,0.565,0.530,��,5.2,��
2024/01/18,12:10,0.523,0.790,0.494,1.004,0.712,0.318,0.565,0.530,��,5.9,��
2024/01/18,12:20,0.524,0.792,0.494,1.003,0.712,0.318,0.564,0.530,��,6.3,��
2024/01/18,12:30,0.524,0.789,0.494,1.003,0.713,0.317,0.565,0.529,���k��,7.1,��
2024/01/18,12:40,0.522,0.790,0.494,1.002,0.712,0.317,0.567,0.529,��,9.1,��
2024/01/18,12:50,0.522,0.790,0.494,1.005,0.711,0.317,0.566,0.529,��,8.1,��
2024/01/18,13:00,0.522,0.790,0.494,1.002,0.711,0.318,0.565,0.528,��,8.2,��
2024/01/18,13:10,0.523,0.788,0.493,1.003,0.712,0.317,0.565,0.531,��,8.5,��
2024/01/18,13:20,0.521,0.790,0.493,1.004,0.711,0.318,0.567,0.529,���k��,7.8,��
2024/01/18,13:30,0.522,0.790,0.494,1.004,0.708,0.316,0.565,0.528,��,5.9,��
2024/01/18,13:40,0.522,0.788,0.493,1.005,0.712,0.319,0.566,0.530,��,5.9,��
2024/01/18,13:50,0.522,0.790,0.494,1.003,0.712,0.317,0.567,0.529,��,5.7,��
2024/01/18,14:00,0.524,0.789,0.495,1.006,0.711,0.317,0.566,0.530,��,6.2,��
2024/01/18,14:10,0.523,0.789,0.494,1.002,0.711,0.316,0.565,0.530,��,6.2,��
2024/01/18,14:20,0.523,0.788,0.494,1.004,0.711,0.317,0.565,0.529,��,6.6,��
2024/01/18,14:30,0.524,0.788,0.495,1.005,0.712,0.317,0.566,0.530,�쐼,4.8,��
2024/01/18,14:40,0.523,0.791,0.495,1.004,0.711,0.319,0.566,0.530,��,5.4,��
2024/01/18,14:50,0.522,0.789,0.495,1.003,0.710,0.317,0.566,0.528,��,4.4,��
2024/01/18,15:00,0.523,0.791,0.496,1.003,0.711,0.319,0.565,0.529,��,5.8,��
2024/01/18,15:10,0.523,0.788,0.494,1.003,0.711,0.317,0.566,0.530,��,4.9,��
2024/01/18,15:20,0.521,0.789,0.494,1.005,0.711,0.317,0.565,0.530,��,4.8,��
2024/01/18,15:30,0.523,0.790,0.494,1.002,0.710,0.317,0.565,0.530,��,4.3,��
2024/01/18,15:40,0.522,0.789,0.495,1.003,0.709,0.317,0.566,0.530,���쐼,4.5,��
2024/01/18,15:50,0.523,0.790,0.495,1.003,0.711,0.316,0.565,0.529,���쐼,3.9,��
2024/01/18,16:00,0.522,0.790,0.494,1.006,0.710,0.317,0.565,0.529,���쐼,5.0,��
2024/01/18,16:10,0.522,0.788,0.494,1.003,0.711,0.317,0.566,0.530,���쐼,4.7,��
2024/01/18,16:20,0.525,0.790,0.495,1.004,0.710,0.316,0.565,0.529,���쐼,5.1,��
2024/01/18,16:30,0.523,0.789,0.495,1.004,0.711,0.318,0.566,0.530,���쐼,5.8,��
2024/01/18,16:40,0.522,0.790,0.495,1.006,0.713,0.315,0.566,0.529,���쐼,5.7,��
2024/01/18,16:50,0.522,0.790,0.493,1.004,0.712,0.317,0.566,0.530,���쐼,4.9,��
2024/01/18,17:00,0.521,0.789,0.494,1.005,0.714,0.316,0.568,0.529,��,6.3,��
2024/01/18,17:10,0.521,0.790,0.494,1.006,0.714,0.317,0.567,0.529,��,5.7,��
2024/01/18,17:20,0.522,0.788,0.494,1.005,0.711,0.318,0.567,0.529,��,5.2,��
2024/01/18,17:30,0.523,0.788,0.494,1.003,0.713,0.317,0.565,0.529,��,4.8,��
2024/01/18,17:40,0.522,0.788,0.494,1.003,0.713,0.316,0.566,0.528,���k��,5.3,��
2024/01/18,17:50,0.523,0.790,0.494,1.003,0.712,0.317,0.567,0.529,���k��,7.3,��
2024/01/18,18:00,0.523,0.789,0.493,1.004,0.714,0.317,0.567,0.528,���k��,6.2,��
2024/01/18,18:10,0.522,0.789,0.493,1.005,0.712,0.318,0.566,0.529,��,6.6,��
2024/01/18,18:20,0.521,0.790,0.494,1.004,0.711,0.317,0.565,0.528,���k��,6.6,��
2024/01/18,18:30,0.523,0.790,0.494,1.004,0.712,0.316,0.565,0.530,��,6.4,��
2024/01/18,18:40,0.521,0.788,0.493,1.004,0.715,0.318,0.567,0.529,��,5.8,��
2024/01/18,18:50,0.523,0.788,0.493,1.003,0.712,0.316,0.567,0.530,���k��,5.4,��
2024/01/18,19:00,0.521,0.790,0.493,1.003,0.713,0.317,0.565,0.529,��,5.8,��
2024/01/18,19:10,0.521,0.788,0.494,1.004,0.713,0.316,0.568,0.528,���k��,5.2,��
2024/01/18,19:20,0.523,0.788,0.492,1.005,0.713,0.317,0.567,0.526,���k��,5.6,��
2024/01/18,19:30,0.520,0.788,0.494,1.003,0.712,0.318,0.566,0.529,���k��,5.9,��
2024/01/18,19:40,0.521,0.788,0.492,1.004,0.711,0.317,0.568,0.528,��,6.0,��
2024/01/18,19:50,0.522,0.789,0.494,1.003,0.712,0.317,0.568,0.528,��,6.3,��
2024/01/18,20:00,0.520,0.787,0.494,1.004,0.710,0.317,0.569,0.529,��,5.7,��
2024/01/18,20:10,0.521,0.789,0.494,1.006,0.712,0.317,0.567,0.528,��,6.4,��
2024/01/18,20:20,0.521,0.789,0.494,1.002,0.711,0.318,0.568,0.528,��,6.3,��
2024/01/18,20:30,0.520,0.788,0.494,1.005,0.712,0.318,0.567,0.528,��,7.2,��
2024/01/18,20:40,0.521,0.789,0.492,1.002,0.712,0.316,0.568,0.528,��,7.2,��
2024/01/18,20:50,0.520,0.786,0.493,1.006,0.712,0.317,0.566,0.528,��,7.0,��
2024/01/18,21:00,0.519,0.787,0.493,1.004,0.711,0.318,0.568,0.528,��,7.6,��
2024/01/18,21:10,0.522,0.788,0.493,1.005,0.713,0.316,0.567,0.527,��,6.4,��
2024/01/18,21:20,0.522,0.789,0.494,1.002,0.712,0.315,0.567,0.529,���k��,6.9,��
2024/01/18,21:30,0.521,0.787,0.493,1.004,0.713,0.316,0.568,0.529,���k��,5.5,��
2024/01/18,21:40,0.521,0.788,0.493,1.005,0.713,0.317,0.566,0.527,���k��,4.5,��
2024/01/18,21:50,0.521,0.787,0.492,1.003,0.712,0.318,0.567,0.527,��,5.4,��
2024/01/18,22:00,0.521,0.786,0.493,1.004,0.713,0.317,0.566,0.528,��,6.2,��
2024/01/18,22:10,0.521,0.789,0.493,1.003,0.711,0.317,0.567,0.528,��,5.1,��
2024/01/18,22:20,0.522,0.788,0.494,1.005,0.711,0.316,0.567,0.527,���k��,5.0,��
2024/01/18,22:30,0.522,0.788,0.493,1.002,0.713,0.317,0.567,0.528,�k��,4.3,��
2024/01/18,22:40,0.521,0.788,0.493,1.002,0.713,0.316,0.566,0.528,�k�k��,7.3,��
2024/01/18,22:50,0.522,0.789,0.493,1.004,0.712,0.316,0.568,0.528,�k�k��,7.2,��
2024/01/18,23:00,0.523,0.788,0.492,1.005,0.712,0.317,0.567,0.529,�k�k��,8.2,��
2024/01/18,23:10,0.522,0.789,0.493,1.002,0.713,0.317,0.567,0.529,�k�k��,7.7,��
2024/01/18,23:20,0.522,0.787,0.492,1.001,0.712,0.317,0.567,0.528,�k�k��,7.9,��
2024/01/18,23:30,0.523,0.789,0.492,1.003,0.713,0.316,0.567,0.529,�k�k��,7.4,��
2024/01/18,23:40,0.521,0.789,0.494,1.002,0.712,0.316,0.567,0.528,�k�k��,7.6,��
2024/01/18,23:50,0.521,0.788,0.493,1.006,0.711,0.316,0.566,0.528,�k�k��,7.6,��
